{"data":{"norad_id":68289,"epoch":"2026-05-24T15:43:01.735680Z","epoch_age_seconds":100874,"freshness":"FRESH","line1":"1 68289U 26055AD  26144.65488120  .00016978  00000+0  51259-3 0  9997","line2":"2 68289  53.1589 325.5371 0000960  86.5427 273.5686 15.34393861 11573","mean_motion":15.34393861,"eccentricity":9.6e-5,"inclination_deg":53.1589,"raan_deg":325.5371,"arg_perigee_deg":86.5427,"mean_anomaly_deg":273.5686,"bstar":0.00051259,"rev_number":1157,"period_min":93.848133559497,"perigee_km":462.06476425496,"apogee_km":463.3782090844,"semimajor_km":6840.8584866697,"source":"CELESTRAK","updated_at":"2026-05-25T13:38:21.914723Z"}}